Regional Weather Roundup
Issued by NWS Green Bay, WI

Home | Current Version | Previous Version | Text Only | Print | Product List | Glossary On
Versions: 1 2 3 4 5 6 7 8 9 10 11 12 13 14 15 16 17 18 19 20 21 22 23 24 25 26 27 28 29 30 31 32 33 34 35 36 37 38 39 40 41 42 43 44 45 46 47 48 49 50
000
ASUS43 KGRB 031310
RWRGRB

NORTH-CENTRAL AND NORTHEAST WISCONSIN REGIONAL WEATHER ROUNDUP
NATIONAL WEATHER SERVICE GREEN BAY WI
700 AM CST TUE MAR 03 2015

WIZ005-009-010>012-018-019-031400-
NORTH CENTRAL WISCONSIN

CITY           SKY/WX    TMP DP  RH WIND       PRES   REMARKS
IRONWOOD       CLOUDY    19  16  86 S6        29.72F
MANITOWISH WTR CLOUDY    18  14  85 S8        29.72F WCI   7
ARBOR VITAE    CLOUDY    19  15  83 SE5       29.74F
EAGLE RIVER    CLOUDY    18  13  79 SE3       29.75F
LAND O LAKES   CLOUDY    19  14  83 S5        29.75F
RHINELANDER    CLOUDY    18  13  80 SE6       29.75F WCI  10
PHILLIPS       CLOUDY    19  13  79 SE5       29.74F
ANTIGO         CLOUDY    18  15  88 SE12      29.78F WCI   5
TOMAHAWK       CLOUDY    19  14  82 CALM      29.76F
MERRILL        CLOUDY    20  16  83 SE5       29.77F
$$

WIZ013-073-031400-
NORTHEAST WISCONSIN

CITY           SKY/WX    TMP DP  RH WIND       PRES   REMARKS
IRON MOUNTAIN  CLOUDY    19  15  84 SE7       29.82F WCI  10
MARINETTE      CLOUDY    23  18  80 S3        29.87F
OCONTO         CLOUDY    23  20  89 SE3       29.87F
$$

WIZ017-030-035>037-045-031400-
CENTRAL WISCONSIN

CITY           SKY/WX    TMP DP  RH WIND       PRES   REMARKS
MEDFORD        CLOUDY    19  14  81 SE6       29.74F
WAUSAU         CLOUDY    20  14  77 SE9       29.77F WCI   9
MOSINEE        CLOUDY    19  18  93 SE8       29.79F WCI   9
MARSHFIELD     CLOUDY    22  14  71 SE9       29.76F
WISC RAPIDS    CLOUDY    22  13  68 SE12      29.79F
STEVENS POINT  LGT SNOW  20  16  84 S8        29.79F VSB 1
WAUPACA        LGT SNOW  25  17  70 SE9       29.83F
SHAWANO        CLOUDY    25  18  76 SE5       29.84F
CLINTONVILLE   CLOUDY    25  18  74 S10       29.83F
$$

WIZ038-039-048-051-031400-
FOX VALLEY

CITY           SKY/WX    TMP DP  RH WIND       PRES   REMARKS
NWS GREEN BAY  LGT SNOW  26  20  77 S13       29.85F
APPLETON       LGT SNOW  25  16  68 SE13      29.84F
OSHKOSH        LGT SNOW  24  19  81 SE10      29.82F
FOND DU LAC    LGT SNOW  24  19  81 S15       29.83F
$$

WIZ022-050-052-031400-
EAST CENTRAL WISCONSIN

CITY           SKY/WX    TMP DP  RH WIND       PRES   REMARKS
STURGEON BAY   CLOUDY    28  19  69 S13G21    29.89F
MANITOWOC      LGT SNOW  28  26  92 S21G28    29.89F FOG
SHEBOYGAN      LGT SNOW  26  23  88 S15G21    29.88F FOG
$$

LMZ563-521-522-541>543-031400-
LAKESHORE

STATION/POSITION TIME  TEMP    WIND        PRES    VSBY  WAVE
                       AIR SEA DIR/SP/G                  HT/PER
                 (UTC) (F)     (DEG/KT/KT) (MB)    (MI)  (FT/S)
SHEBOYGAN LKSHOR 1300   27     170/ 26/ 27 1012.4F
KEWAUNEE LKSHORE 1300                      1011.9F
NORTHPORT PIER   1300   27     160/  6/ 11 1012.9F
SISTER BAY LKSHO 1300   24        CALM       N/A
CHAMBERS ISLAND  1300   22     160/  2/  4 1012.9F
MENOMINEE LKSHOR 1300                      1012.5F
$$



USA.gov is the U.S. government's official web portal to all federal, state and local government web resources and services.